Location: Silverdale
(47.6506°N, 122.6941°W)
Time: 15:19:51
(UTC+00:00)

Transit 4A - Visible Passes

Search period start: 26 September 2022 00:00
Search period end: 06 October 2022 00:00
Orbit: 869 x 975 km, 66.8° (Epoch: 25 September)

Date Brightness Start Highest point End Pass type
(mag) Time Alt. Az. Time Alt. Az. Time Alt. Az.
26 Sep 10.4 07:50:25 12° NE 07:50:25 12° NE 07:50:54 10° NE visible
26 Sep 9.7 09:33:56 25° N 09:33:56 25° N 09:37:03 10° NNE visible
26 Sep 10.1 11:17:26 11° NW 11:20:01 14° NNW 11:22:57 10° NNE visible
26 Sep 10.2 13:06:25 10° NNW 13:09:10 13° NNE 13:11:54 10° NE visible
27 Sep 10.4 07:59:25 14° NE 07:59:25 14° NE 08:00:12 10° NE visible
27 Sep 9.8 09:42:56 23° N 09:42:56 23° N 09:46:11 10° NNE visible
27 Sep 10.2 11:27:25 10° NNW 11:29:51 12° N 11:32:16 10° NNE visible
27 Sep 10.2 13:15:40 10° NNW 13:18:59 15° NNE 13:22:15 10° NE visible
28 Sep 10.3 08:08:25 15° NNE 08:08:25 15° NNE 08:09:26 10° NNE visible
28 Sep 9.9 09:51:55 20° NNW 09:51:55 20° NNW 09:55:19 10° NNE visible
28 Sep 10.3 11:37:36 10° NNW 11:39:43 12° N 11:41:49 10° NNE visible
28 Sep 10.1 13:24:51 10° NNW 13:28:44 18° NNE 13:32:35 10° ENE visible
29 Sep 10.3 08:17:23 16° NNE 08:17:23 16° NNE 08:18:37 10° NNE visible
29 Sep 10.0 10:00:54 17° NNW 10:00:54 17° NNW 10:04:27 10° NNE visible
29 Sep 10.3 11:47:29 10° NNW 11:49:36 12° N 11:51:42 10° NNE visible
29 Sep 10.0 13:34:00 10° NNW 13:38:26 21° NNE 13:42:48 10° E visible
30 Sep 10.3 08:26:23 17° NNE 08:26:23 17° NNE 08:27:48 10° NNE visible
30 Sep 10.1 10:09:52 15° NNW 10:10:19 15° NNW 10:13:37 10° NNE visible
30 Sep 10.3 11:57:02 10° NNW 11:59:28 12° N 12:01:52 10° NNE visible
01 Oct 10.3 08:35:22 17° NNE 08:35:22 17° NNE 08:36:55 10° NNE visible
01 Oct 10.2 10:18:51 12° NNW 10:20:08 13° NNW 10:22:51 10° NNE visible
01 Oct 10.3 12:06:22 10° NNW 12:09:17 14° NNE 12:12:11 10° NE visible
02 Oct 10.3 08:44:21 16° N 08:44:21 16° N 08:46:03 10° NNE visible
02 Oct 10.3 10:27:51 10° NNW 10:29:59 12° N 10:32:14 10° NNE visible
02 Oct 10.2 12:15:35 10° NNW 12:19:05 16° NNE 12:22:32 10° ENE visible
03 Oct 10.3 08:53:20 16° N 08:53:20 16° N 08:55:10 10° NNE visible
03 Oct 10.4 10:37:49 10° NNW 10:39:51 12° N 10:41:53 10° NNE visible
03 Oct 10.1 12:24:44 10° NNW 12:28:49 19° NNE 12:32:50 10° ENE visible
04 Oct 10.3 09:02:20 15° N 09:02:20 15° N 09:04:19 10° NNE visible
04 Oct 10.4 10:47:34 10° NNW 10:49:44 12° N 10:51:52 10° NNE visible
04 Oct 9.9 12:33:53 10° NNW 12:38:29 23° NNE 12:43:00 10° E visible
05 Oct 10.4 09:11:22 14° N 09:11:22 14° N 09:13:29 10° NNE visible
05 Oct 10.4 10:57:01 10° NNW 10:59:35 13° NNE 11:02:07 10° NE visible
05 Oct 9.6 12:43:01 10° NNW 12:48:04 28° NE 12:53:03 10° E visible
